STARLINK-37050

Last updated on Sun Apr 12 2026 00:02:07 GMT+0000 (Coordinated Universal Time)

1 68228U 26053X 26101.50002315 -.01840576 00000+0 -22482-1 0 9999 2 68228 97.2848 337.4631 0002025 78.8878 108.4525 15.63423008 5279

Satellite not in orbit

STARLINK-37050